Rochester/St. Mary\'s Hospita, MN

4:19 PM CST on December 05, 2019 (GMT -0600)
Rochester/St. Mary\'s Hospita

Weather History for K9MN - October, 2019

Change the Weather History Date:

Thursday, October 3, 2019

  Actual Average (KRST) Record (KRST)
Temperature  
Mean Temperature 46 °F -  
Max Temperature 50 °F 63 °F 93 °F (1997)
Min Temperature 43 °F 42 °F 24 °F (1888)
Degree Days  
Heating Degree Days 18    
Moisture  
Dew Point 43 °F    
Average Humidity 85    
Maximum Humidity 100    
Minimum Humidity 71    
Precipitation  
Precipitation 0.01 in - - ()
Sea Level Pressure  
Sea Level Pressure 30.17 in    
Wind  
Wind Speed 9 mph (WNW)    
Max Wind Speed 22 mph    
Max Gust Speed 31 mph    
Visibility 9 miles    
Events      
Averages and records for this station are not official NWS values.
T = Trace of Precipitation, MM = Missing Value Source: NWS Daily Summary

Daily Weather History Graph

Daily Weather History Graph

Search for Another Location

Airport or City:

Astronomy

Oct. 03, 2019 Rise Set
Actual Time 7:09 AM CDT 6:47 PM CDT
Civil Twilight 6:40 AM CDT 7:16 PM CDT
Nautical Twilight 6:07 AM CDT 7:49 PM CDT
Astronomical Twilight 5:33 AM CDT 8:23 PM CDT
Moon 12:52 PM CDT (10/3) 10:16 PM CDT (10/3)
Length of Visible Light 12h 35m
Length of Day
11h 37m
Waxing Crescent, 30% of the Moon is Illuminated
Oct 3
Waxing Crescent
Oct 5
First Quarter
Oct 13
Full
Oct 21
Last Quarter
Oct 27
New

Hourly Weather History & Observations

Time (CDT) Temp. Windchill Dew Point Humidity Pressure Visibility Wind Dir Wind Speed Gust Speed Precip Events Conditions
12:15 AM 48.2 °F - 48.4 °F 100% 29.97 in 7.0 mi ESE 3.5 mph - N/A   Overcast
12:16 AM 48.2 °F - 48.4 °F 100% 29.97 in 10.0 mi East 5.8 mph - N/A   Overcast
12:35 AM 48.2 °F - 48.4 °F 100% 29.98 in 10.0 mi East 4.6 mph - N/A   Overcast
12:55 AM 48.2 °F - 48.2 °F 100% 29.97 in 10.0 mi East 5.8 mph - N/A   Overcast
1:15 AM 48.2 °F - 48.2 °F 100% 29.96 in 10.0 mi ESE 4.6 mph - N/A   Overcast
1:16 AM 48.2 °F - 48.2 °F 100% 29.96 in 10.0 mi ESE 4.6 mph - N/A   Overcast
1:35 AM 48.2 °F - 48.2 °F 100% 29.95 in 10.0 mi ESE 3.5 mph - N/A   Overcast
1:36 AM 48.2 °F - 48.2 °F 100% 29.96 in 10.0 mi East 3.5 mph - N/A   Overcast
1:55 AM 48.2 °F - 48.2 °F 100% 29.96 in 10.0 mi ESE 4.6 mph - N/A   Overcast
2:15 AM 48.2 °F - 48.4 °F 100% 29.96 in 10.0 mi Calm Calm - N/A   Overcast
2:35 AM 48.4 °F - 48.6 °F 100% 29.97 in 10.0 mi Calm Calm - N/A   Overcast
2:36 AM 48.6 °F - 48.7 °F 100% 29.97 in 10.0 mi Calm Calm - N/A   Overcast
2:55 AM 49.1 °F - 49.3 °F 100% 29.98 in 4.0 mi WSW 3.5 mph - N/A   Overcast
2:56 AM 49.3 °F - 49.5 °F 100% 29.98 in 4.0 mi WSW 3.5 mph - N/A   Overcast
3:15 AM 49.3 °F - 49.5 °F 100% 29.99 in 2.5 mi West 3.5 mph - N/A   Overcast
3:35 AM 49.3 °F - 49.5 °F 100% 29.99 in 2.5 mi West 4.6 mph - N/A   Overcast
3:55 AM 49.5 °F - 49.6 °F 100% 29.99 in 2.0 mi West 5.8 mph - 0.01 in   Overcast
3:56 AM 49.5 °F - 49.6 °F 100% 29.99 in 2.5 mi West 4.6 mph - 0.01 in   Overcast
4:15 AM 49.6 °F - 50.0 °F 100% 30.00 in 2.5 mi West 8.1 mph - N/A   Overcast
4:16 AM 49.6 °F - 50.0 °F 100% 30.00 in 2.5 mi West 6.9 mph - N/A   Overcast
4:35 AM 49.5 °F - 49.8 °F 100% 30.00 in 5.0 mi West 13.8 mph 21.9 mph N/A   Overcast
4:55 AM 48.7 °F - 48.9 °F 100% 30.01 in 10.0 mi West 17.3 mph 27.6 mph N/A   Overcast
5:15 AM 48.2 °F - 47.7 °F 98% 30.02 in 10.0 mi West 12.7 mph 23.0 mph N/A   Overcast
5:16 AM 48.2 °F - 47.7 °F 98% 30.02 in 10.0 mi West 13.8 mph 23.0 mph N/A   Overcast
5:35 AM 47.8 °F - 47.3 °F 98% 30.02 in 10.0 mi West 15.0 mph 26.5 mph N/A   Overcast
5:36 AM 47.8 °F - 47.3 °F 98% 30.02 in 10.0 mi West 13.8 mph 26.5 mph N/A   Overcast
5:55 AM 47.8 °F - 47.3 °F 98% 30.03 in 10.0 mi West 12.7 mph 21.9 mph N/A   Overcast
6:15 AM 47.8 °F - 46.9 °F 97% 30.04 in 10.0 mi West 12.7 mph 21.9 mph N/A   Overcast
6:35 AM 47.8 °F - 46.8 °F 96% 30.05 in 10.0 mi West 13.8 mph 19.6 mph N/A   Overcast
6:36 AM 47.7 °F - 46.8 °F 97% 30.05 in 10.0 mi West 13.8 mph 19.6 mph N/A   Overcast
6:55 AM 47.5 °F - 46.4 °F 96% 30.07 in 10.0 mi WNW 8.1 mph 17.3 mph N/A   Mostly Cloudy
6:56 AM 47.5 °F - 46.4 °F 96% 30.07 in 10.0 mi WNW 6.9 mph 17.3 mph N/A   Mostly Cloudy
7:15 AM 47.5 °F - 46.8 °F 97% 30.07 in 10.0 mi West 12.7 mph 18.4 mph N/A   Overcast
7:35 AM 46.9 °F - 44.4 °F 91% 30.09 in 10.0 mi West 10.4 mph 17.3 mph N/A   Overcast
7:55 AM 46.9 °F - 43.5 °F 88% 30.10 in 10.0 mi WNW 10.4 mph 20.7 mph N/A   Mostly Cloudy
7:56 AM 46.8 °F - 43.5 °F 88% 30.10 in 10.0 mi WNW 11.5 mph 20.7 mph N/A   Mostly Cloudy
8:15 AM 46.4 °F 39.8 °F 42.6 °F 87% 30.10 in 10.0 mi WNW 16.1 mph 25.3 mph N/A   Mostly Cloudy
8:16 AM 46.4 °F 39.8 °F 42.4 °F 86% 30.10 in 10.0 mi NW 16.1 mph 25.3 mph N/A   Mostly Cloudy
8:35 AM 47.5 °F - 43.0 °F 84% 30.12 in 10.0 mi NW 11.5 mph 21.9 mph N/A   Mostly Cloudy
8:55 AM 47.3 °F - 43.7 °F 87% 30.13 in 10.0 mi WNW 12.7 mph 18.4 mph N/A   Overcast
9:15 AM 46.4 °F 40.1 °F 44.1 °F 92% 30.13 in 5.0 mi West 15.0 mph 25.3 mph N/A   Overcast
9:16 AM 46.2 °F 40.1 °F 44.2 °F 93% 30.13 in 5.0 mi West 13.8 mph 25.3 mph N/A   Overcast
9:35 AM 46.4 °F 40.4 °F 43.0 °F 88% 30.14 in 10.0 mi WNW 13.8 mph 26.5 mph N/A   Overcast
9:36 AM 46.6 °F - 43.0 °F 87% 30.15 in 10.0 mi West 12.7 mph 26.5 mph N/A   Overcast
9:55 AM 47.3 °F - 42.3 °F 83% 30.15 in 10.0 mi WNW 13.8 mph 23.0 mph N/A   Overcast
10:15 AM 48.2 °F - 41.9 °F 79% 30.15 in 10.0 mi WNW 9.2 mph 20.7 mph N/A   Overcast
10:35 AM 48.2 °F - 41.4 °F 77% 30.16 in 10.0 mi WNW 13.8 mph 21.9 mph N/A   Overcast
10:36 AM 48.2 °F - 41.4 °F 77% 30.15 in 10.0 mi WNW 17.3 mph 23.0 mph N/A   Overcast
10:55 AM 48.2 °F - 41.4 °F 77% 30.17 in 10.0 mi WNW 11.5 mph 25.3 mph N/A   Overcast
10:56 AM 48.2 °F - 41.4 °F 77% 30.17 in 10.0 mi West 12.7 mph 25.3 mph N/A   Overcast
11:15 AM 48.4 °F - 40.3 °F 74% 30.17 in 10.0 mi WNW 21.9 mph 27.6 mph N/A   Overcast
11:35 AM 48.2 °F - 39.6 °F 72% 30.18 in 10.0 mi WNW 17.3 mph 27.6 mph N/A   Overcast
11:55 AM 48.4 °F - 41.4 °F 77% 30.18 in 10.0 mi West 13.8 mph 25.3 mph N/A   Overcast
11:56 AM 48.4 °F - 41.5 °F 77% 30.18 in 10.0 mi West 16.1 mph 25.3 mph N/A   Overcast
12:15 PM 48.0 °F - 42.1 °F 80% 30.19 in 7.0 mi WNW 9.2 mph 26.5 mph N/A   Overcast
12:16 PM 48.2 °F - 41.9 °F 79% 30.19 in 7.0 mi NW 10.4 mph 26.5 mph N/A   Overcast
12:35 PM 48.2 °F - 41.7 °F 78% 30.19 in 10.0 mi WNW 16.1 mph 25.3 mph N/A   Overcast
12:55 PM 49.3 °F - 40.6 °F 72% 30.18 in 10.0 mi West 21.9 mph 31.1 mph N/A   Overcast
1:15 PM 50.0 °F - 40.8 °F 71% 30.20 in 10.0 mi West 15.0 mph 26.5 mph N/A   Overcast
1:16 PM 50.0 °F - 40.8 °F 71% 30.20 in 10.0 mi West 13.8 mph 26.5 mph N/A   Overcast
1:35 PM 49.6 °F - 40.5 °F 71% 30.20 in 10.0 mi West 17.3 mph 27.6 mph N/A   Overcast
1:36 PM 49.5 °F - 40.5 °F 71% 30.19 in 10.0 mi West 17.3 mph 27.6 mph N/A   Overcast
1:55 PM 49.1 °F - 40.1 °F 71% 30.20 in 10.0 mi West 16.1 mph 25.3 mph N/A   Overcast
2:15 PM 48.2 °F - 39.7 °F 73% 30.20 in 10.0 mi West 19.6 mph 25.3 mph N/A   Overcast
2:35 PM 48.2 °F - 39.4 °F 72% 30.21 in 10.0 mi West 19.6 mph 28.8 mph N/A   Overcast
2:36 PM 48.2 °F - 39.4 °F 72% 30.21 in 10.0 mi West 17.3 mph 28.8 mph N/A   Overcast
2:55 PM 47.3 °F - 38.7 °F 72% 30.23 in 10.0 mi NW 16.1 mph 25.3 mph N/A   Overcast
3:15 PM 46.9 °F - 39.0 °F 74% 30.24 in 10.0 mi WNW 17.3 mph 23.0 mph N/A   Overcast
3:35 PM 47.5 °F - 39.2 °F 73% 30.25 in 10.0 mi West 11.5 mph 19.6 mph N/A   Overcast
3:36 PM 47.7 °F - 39.2 °F 72% 30.25 in 10.0 mi West 11.5 mph 19.6 mph N/A   Overcast
3:55 PM 47.5 °F - 39.7 °F 75% 30.25 in 10.0 mi WNW 12.7 mph 20.7 mph N/A   Overcast
3:56 PM 47.3 °F - 39.7 °F 75% 30.25 in 10.0 mi WNW 12.7 mph 20.7 mph N/A   Overcast
4:15 PM 47.1 °F - 39.7 °F 76% 30.25 in 10.0 mi WNW 15.0 mph 21.9 mph N/A   Overcast
4:35 PM 47.3 °F - 39.2 °F 73% 30.27 in 10.0 mi WNW 9.2 mph 20.7 mph N/A   Overcast
4:55 PM 46.9 °F - 39.4 °F 75% 30.27 in 10.0 mi West 9.2 mph 19.6 mph N/A   Overcast
4:56 PM 46.9 °F - 39.4 °F 75% 30.27 in 10.0 mi WNW 11.5 mph 16.1 mph N/A   Overcast
5:15 PM 46.6 °F - 39.2 °F 75% 30.27 in 10.0 mi WNW 8.1 mph 20.7 mph N/A   Overcast
5:16 PM 46.8 °F - 39.2 °F 75% 30.28 in 10.0 mi WNW 9.2 mph 20.7 mph N/A   Overcast
5:35 PM 46.4 °F 40.7 °F 39.0 °F 75% 30.28 in 10.0 mi WNW 12.7 mph 19.6 mph N/A   Overcast
5:55 PM 46.2 °F 40.5 °F 38.7 °F 75% 30.29 in 10.0 mi WNW 12.7 mph 20.7 mph N/A   Overcast
6:15 PM 45.7 °F 39.5 °F 37.9 °F 74% 30.30 in 10.0 mi NW 13.8 mph 21.9 mph N/A   Overcast
6:35 PM 45.1 °F 36.9 °F 36.7 °F 72% 30.30 in 10.0 mi WNW 21.9 mph 27.6 mph N/A   Overcast
6:36 PM 45.1 °F 37.6 °F 36.7 °F 72% 30.30 in 10.0 mi WNW 18.4 mph 27.6 mph N/A   Overcast
6:55 PM 45.1 °F 38.1 °F 36.9 °F 73% 30.31 in 10.0 mi WNW 16.1 mph 24.2 mph N/A   Overcast
7:15 PM 45.1 °F 38.8 °F 36.7 °F 72% 30.32 in 10.0 mi WNW 13.8 mph 20.7 mph N/A   Overcast
7:35 PM 45.1 °F 43.7 °F 37.8 °F 75% 30.33 in 10.0 mi West 3.5 mph - N/A   Overcast
7:55 PM 45.5 °F 41.8 °F 38.5 °F 76% 30.32 in 10.0 mi West 6.9 mph - N/A   Overcast
7:56 PM 45.5 °F 41.8 °F 38.5 °F 76% 30.33 in 10.0 mi West 6.9 mph - N/A   Overcast
8:15 PM 45.5 °F 42.5 °F 38.8 °F 78% 30.33 in 10.0 mi WSW 5.8 mph - N/A   Overcast
8:16 PM 45.5 °F 43.2 °F 38.8 °F 78% 30.33 in 10.0 mi West 4.6 mph - N/A   Overcast
8:35 PM 45.0 °F 42.6 °F 38.8 °F 79% 30.34 in 10.0 mi West 4.6 mph - N/A   Overcast
8:55 PM 44.8 °F 41.6 °F 39.2 °F 81% 30.34 in 10.0 mi WNW 5.8 mph - N/A   Overcast
9:15 PM 44.4 °F 40.0 °F 39.2 °F 82% 30.34 in 10.0 mi WNW 8.1 mph - N/A   Overcast
9:16 PM 44.4 °F 40.5 °F 39.2 °F 82% 30.34 in 10.0 mi WNW 6.9 mph - N/A   Overcast
9:35 PM 44.1 °F 39.5 °F 39.4 °F 84% 30.34 in 10.0 mi WNW 8.1 mph - N/A   Overcast
9:36 PM 44.1 °F 40.1 °F 39.4 °F 84% 30.34 in 10.0 mi NW 6.9 mph - N/A   Overcast
9:55 PM 44.1 °F 38.6 °F 39.4 °F 84% 30.34 in 10.0 mi WNW 10.4 mph - N/A   Overcast
10:15 PM 44.2 °F 39.2 °F 39.4 °F 83% 30.36 in 10.0 mi NW 9.2 mph - N/A   Overcast
10:35 PM 44.2 °F 40.3 °F 39.6 °F 84% 30.36 in 10.0 mi NW 6.9 mph - N/A   Overcast
10:36 PM 44.4 °F 39.5 °F 39.6 °F 83% 30.36 in 10.0 mi WNW 9.2 mph - N/A   Overcast
10:55 PM 44.1 °F 40.1 °F 39.6 °F 84% 30.36 in 10.0 mi NW 6.9 mph - N/A   Overcast
10:56 PM 44.1 °F 40.1 °F 39.6 °F 84% 30.36 in 10.0 mi NW 6.9 mph - N/A   Overcast
11:15 PM 43.9 °F 39.9 °F 39.9 °F 86% 30.36 in 10.0 mi NW 6.9 mph - N/A   Overcast
11:35 PM 43.9 °F 40.5 °F 39.9 °F 86% 30.36 in 10.0 mi NW 5.8 mph - N/A   Overcast
11:55 PM 44.1 °F 41.5 °F 40.1 °F 86% 30.36 in 10.0 mi NW 4.6 mph - N/A   Overcast
11:56 PM 44.1 °F 41.5 °F 40.1 °F 86% 30.36 in 10.0 mi NW 4.6 mph - N/A   Overcast